Location: Hyderabad
(17.3833°N, 78.4667°E)
Time: 00:13:57
(UTC+05:30)

Daily predictions for brighter satellites

Satellite Brightness Start Highest point End
(mag) Time Altitude Azimuth Time Altitude Azimuth Time Altitude Azimuth
ATLAS 2AS CENTAUR R/B 4.1 02:33:11 34° N 02:33:11 34° N 02:37:45 10° NNE
Cosmos 2219 Rocket 4.3 02:35:05 22° NE 02:35:05 22° NE 02:37:10 10° NNE
Cosmos 2237 Rocket 4.3 02:39:09 20° ENE 02:39:09 20° ENE 02:41:37 10° NE
SL-16 R/B 4.0 02:57:37 29° N 02:57:37 29° N 03:00:28 10° NNW
Cosmos 2333 Rocket 3.7 02:57:40 33° NE 02:57:40 33° NE 03:00:47 10° NNE
Atlas Centaur 2 4.0 03:14:09 18° ENE 03:14:09 18° ENE 03:15:26 10° ENE
Okean O Rocket 4.1 03:09:17 10° ENE 03:11:51 17° E 03:11:51 17° E
Lacrosse 5 3.3 03:16:51 35° ENE 03:16:51 35° ENE 03:19:56 10° NE
SL-16 R/B 3.8 03:23:12 24° SE 03:24:32 26° ESE 03:29:11 10° NE
Skynet4D Del rocket 4.1 03:25:24 81° NE 03:25:24 81° NE 03:32:34 10° ENE
Palapa B4 Rocket 4.5 03:31:29 46° SE 03:31:29 46° SE 03:37:55 10° E
Cosmos 1953 4.2 03:34:37 29° NE 03:34:37 29° NE 03:36:57 10° NNE
Intelsat 5-1 Rocket 3.4 03:33:32 42° N 03:34:02 43° NNE 03:42:44 10° E
ADEOS II 2.4 03:30:35 10° NNE 03:35:39 60° E 03:35:39 60° E
Ariane H10+ 4.4 03:38:21 33° S 03:39:50 34° SSE 04:00:45 10° ESE
SL-8 Rocket 3.8 03:40:29 81° W 03:40:29 81° W 03:46:49 10° N
Cosmos 1470 4.4 03:45:21 31° E 03:45:25 31° E 03:48:54 10° NNE
Nadezhda 3 Rocket 4.4 03:43:34 10° NNW 03:48:29 47° WNW 03:48:29 47° WNW
SL-08 R/B 4.4 03:48:12 54° S 03:49:43 82° E 03:55:58 10° N
Meteor 2-21 Rocket 4.3 03:51:05 59° S 03:52:20 88° E 03:58:26 10° N
RESURS DK-1 3.9 03:52:00 29° ESE 03:52:32 30° ESE 03:56:09 10° NE
PSLV R/B 3.8 03:50:40 10° NNE 03:54:59 66° E 03:54:59 66° E
CZ-4B R/B 3.4 03:51:38 10° NNE 03:54:55 58° NNE 03:54:55 58° NNE
SWIFT 3.1 04:06:57 41° SE 04:06:57 41° SE 04:09:58 10° ESE
Cosmos 1733 3.1 04:11:13 83° NNE 04:11:13 83° NNE 04:14:58 10° N
NOSS 2-2 (C) 4.4 04:11:01 32° SSE 04:12:06 40° ESE 04:15:47 10° NE
Cosmos-2242 3.8 04:12:02 24° SSE 04:14:20 50° E 04:18:27 10° NNE
Cosmos 1354 Rocket 4.4 04:10:32 10° NNW 04:14:55 43° W 04:14:55 43° W
Cosmos 2219 Rocket 4.2 04:16:49 13° NW 04:16:49 13° NW 04:18:23 10° NW
Cosmos 1607 3.9 04:13:19 10° NNW 04:19:43 69° WSW 04:26:05 10° SSE
Cosmos 2237 Rocket 3.3 04:21:00 25° WNW 04:21:00 25° WNW 04:25:27 10° NNW
Cosmos 2366 rocket 4.2 04:19:43 39° WSW 04:21:10 46° W 04:27:02 10° NNW
In-Cosmos 22 4.1 04:16:33 10° NNW 04:21:40 53° W 04:23:20 38° SW
Cosmos 1727 Rocket 4.3 04:16:05 10° N 04:22:13 65° E 04:28:18 10° SSE
NOSS 3-4 (A) 4.4 04:27:52 27° W 04:29:25 30° WNW 04:34:53 10° N
NOSS 3-4 (C) 4.4 04:27:54 27° W 04:29:30 30° WNW 04:34:59 10° N
Cosmos 1674 2.8 04:26:34 10° N 04:30:25 77° E 04:34:15 10° S
IRS-1C Rocket 4.1 04:26:37 10° N 04:31:47 61° WNW 04:34:35 27° SSW
Cosmos 968 Rocket 3.6 04:29:02 10° N 04:34:09 75° ENE 04:39:14 10° SSE
Palapa 6 Rocket 3.1 04:33:03 33° W 04:34:57 65° NNW 04:38:59 10° ENE
Cosmos 1844 Rocket 2.9 04:31:55 10° NNW 04:37:17 45° WSW 04:42:38 10° S
Meteor PRIRODA 3.5 04:34:30 10° N 04:38:12 73° WNW 04:39:58 29° SSW
Cosmos 1339 Rocket 4.4 04:34:14 10° N 04:40:18 84° W 04:46:25 10° S
CZ-4B R/B 3.5 04:35:38 10° N 04:40:59 47° WNW 04:44:14 22° SW
ISS -3.9 04:38:41 10° NW 04:41:56 84° NE 04:45:11 10° SE
Meteor 2-15 Rocket 4.4 04:37:03 10° N 04:43:08 69° W 04:49:12 10° S
NOSS 2-2 (E) 3.4 04:42:06 32° SW 04:43:43 58° WNW 04:47:39 10° NNE
Okean O Rocket 2.8 04:44:53 10° NNW 04:48:24 23° WNW 04:49:18 22° W
KORONAS-FOTON 3.8 04:46:09 10° N 04:50:05 87° W 04:54:00 10° S
Okean 3 Rocket 3.8 04:46:55 10° NNW 04:51:11 47° W 04:55:30 10° SSW
Milstar 3 4.3 04:46:31 19° WSW 04:51:46 35° SSW 05:04:03 10° SE
Cosmos 1603 4.1 04:50:23 10° S 04:56:02 65° ESE 05:01:40 10° NNE
Cosmos 1076 Rocket 3.5 04:52:46 10° NNW 04:56:55 55° W 05:01:06 10° S
Lacrosse 5 3.9 04:56:04 11° WNW 04:58:04 13° NW 05:00:31 10° NNW
SL-14 R/B 4.5 04:56:21 10° N 05:00:11 45° E 05:04:02 10° SSE
Atlas Centaur 2 3.4 04:57:01 10° WNW 05:00:28 23° N 05:04:31 10° NE
ATLAS 3B R/B 2.6 04:57:04 10° NW 05:03:24 57° WSW 05:09:41 10° S
Cosmos 1766 Rocket 3.5 04:59:25 10° N 05:03:50 80° W 05:08:15 10° S
Cosmos 2278 Rocket 2.1 05:00:07 10° NNW 05:05:46 76° WSW 05:11:24 10° S
SL-16 R/B 3.4 05:05:08 15° WSW 05:08:25 24° WNW 05:12:57 10° NNW
Lacrosse 5 rocket 3.5 05:05:16 10° N 05:09:07 32° ENE 05:13:08 10° ESE
IRAS Rocket 4.3 05:04:11 10° NNE 05:09:42 84° ESE 05:15:16 10° SSW
Meteor 1-31 Rocket 4.0 05:14:30 10° NNW 05:17:38 24° WNW 05:20:47 10° SW
Timation 1 Rocket 4.3 05:11:49 10° NNW 05:17:42 63° WSW 05:23:35 10° S
EO 1 Del DPAF 3.2 05:14:24 10° S 05:18:14 80° W 05:22:04 10° NNW
MTI 4.0 05:20:19 10° S 05:23:29 49° W 05:26:37 10° NNW
COSMO-SKYMED 1 4.4 05:19:42 10° SE 05:23:40 36° ENE 05:27:38 10° N
GPS 2-05 Rocket1 4.4 05:21:59 10° W 05:24:41 23° NNW 05:27:25 10° NNE
Cosmos 1821 Rocket 4.4 05:20:07 10° SSW 05:26:08 44° W 05:32:11 10° NNW
Cosmos 2151 4.5 05:23:00 10° NNE 05:26:57 41° E 05:30:54 10° SSE
USA 238 DEB 4.0 05:22:21 10° NW 05:29:07 48° WSW 05:35:56 10° S
USA 238 4.0 05:22:27 10° NW 05:29:15 48° WSW 05:36:04 10° S
SeaSat 1 2.9 05:25:27 10° S 05:30:00 39° WSW 05:34:35 10° NW
H-2A R/B 0.5 05:25:27 10° WNW 05:30:25 81° SSW 05:32:18 10° ESE
RESURS DK-1 4.5 05:29:15 10° W 05:30:29 11° WNW 05:31:43 10° NW
Delta 142 4.0 05:27:23 10° W 05:31:09 37° SSW 05:35:17 10° SE
Cosmos 468 Rocket 4.0 05:27:01 10° SSW 05:32:08 66° WNW 05:37:14 10° N
Cosmos 332 Rocket 3.9 05:29:47 10° SSW 05:34:32 62° WNW 05:39:21 10° N
GPS 2-12 Rocket1 3.6 05:30:21 10° WSW 05:35:03 54° SSE 05:39:43 10° E
Cosmos 2058 4.2 05:31:11 10° N 05:35:07 46° E 05:39:02 10° SSE
Cosmos 1408 Rocket 4.4 05:31:54 10° NNW 05:35:47 30° W 05:39:38 10° SSW
Okean-O 3.6 05:31:57 10° NNW 05:35:47 29° WNW 05:39:37 10° SW
USA 32 4.4 05:31:58 10° NNW 05:36:56 45° W 05:41:54 10° SSW
